When you browse on this site, cookies collect data to enhance your experience and personalize the content and advertising you see.
Visit our Privacy Policy to learn more. By continuing to use the site, you agree to this use of cookies and data.
  • In Romania
  • List of Countries
  • For 7 days
  • Water Temperature
  • Satellite Maps
  • Weather Map
  • Weather Widgets
  • user-avatar
    Login

    Hourly Weather Kranevo

    Today, 21 April, Sunday

    Time Temperature Precipitation Wind Pressure Humidity
    00:00 +4°C° 0 mm 3 mps 764 mmHg 59%
    01:00 +4°C° 0 mm 3 mps 764 mmHg 61%
    02:00 +4°C° 0 mm 3 mps 763 mmHg 64%
    03:00 +4°C° 0 mm 3 mps 763 mmHg 67%
    04:00 +4°C° 0 mm 3 mps 763 mmHg 69%
    05:00 +4°C° 0 mm 3 mps 763 mmHg 72%
    06:00 +5°C° 0 mm 3 mps 763 mmHg 69%
    07:00 +8°C° 0 mm 3 mps 763 mmHg 67%
    08:00 +9°C° 0 mm 3 mps 763 mmHg 64%
    09:00 +11°C° 0 mm 3 mps 763 mmHg 59%
    10:00 +12°C° 0 mm 3 mps 763 mmHg 53%
    11:00 +14°C° 0 mm 2 mps 763 mmHg 48%
    12:00 +14°C° 0 mm 2 mps 763 mmHg 50%
    13:00 +13°C° 0 mm 3 mps 763 mmHg 53%
    14:00 +12°C° 0 mm 3 mps 762 mmHg 55%
    15:00 +12°C° 0 mm 3 mps 762 mmHg 58%
    16:00 +12°C° 0 mm 3 mps 762 mmHg 60%
    17:00 +11°C° 0 mm 3 mps 762 mmHg 62%
    18:00 +10°C° 0 mm 3 mps 762 mmHg 65%
    19:00 +9°C° 0 mm 3 mps 762 mmHg 68%
    20:00 +7°C° 0 mm 2 mps 762 mmHg 71%
    21:00 +7°C° 0 mm 2 mps 762 mmHg 70%
    22:00 +7°C° 0 mm 2 mps 762 mmHg 69%
    23:00 +7°C° 0 mm 2 mps 762 mmHg 68%

    Tomorrow, 22 April, Monday

    Time Temperature Precipitation Wind Pressure Humidity
    00:00 +6°C° 0 mm 2 mps 762 mmHg 69%
    01:00 +6°C° 0 mm 2 mps 761 mmHg 70%
    02:00 +6°C° 0 mm 2 mps 761 mmHg 71%
    03:00 +6°C° 0 mm 2 mps 761 mmHg 72%
    04:00 +6°C° 0 mm 2 mps 761 mmHg 73%
    05:00 +6°C° 0 mm 2 mps 761 mmHg 74%
    06:00 +7°C° 0 mm 3 mps 761 mmHg 71%
    07:00 +8°C° 0 mm 4 mps 761 mmHg 68%
    08:00 +9°C° 0 mm 5 mps 761 mmHg 65%
    09:00 +9°C° 0 mm 5 mps 762 mmHg 63%
    10:00 +10°C° 0 mm 5 mps 762 mmHg 62%
    11:00 +10°C° 0 mm 6 mps 762 mmHg 60%
    12:00 +10°C° 0 mm 6 mps 762 mmHg 58%
    13:00 +10°C° 0 mm 5 mps 762 mmHg 57%
    14:00 +10°C° 0 mm 5 mps 762 mmHg 56%
    15:00 +10°C° 0 mm 5 mps 762 mmHg 56%
    16:00 +10°C° 0 mm 5 mps 762 mmHg 57%
    17:00 +10°C° 0 mm 5 mps 762 mmHg 57%
    18:00 +8°C° 0 mm 4 mps 762 mmHg 62%
    19:00 +7°C° 0 mm 4 mps 762 mmHg 67%
    20:00 +7°C° 0 mm 3 mps 763 mmHg 72%
    21:00 +7°C° 0 mm 3 mps 763 mmHg 75%
    22:00 +7°C° 0 mm 3 mps 763 mmHg 77%
    23:00 +7°C° 0 mm 3 mps 763 mmHg 79%

    Day after tomorrow, 23 April, Tuesday

    Time Temperature Precipitation Wind Pressure Humidity
    00:00 +7°C° 0 mm 2 mps 763 mmHg 81%
    01:00 +6°C° 0 mm 2 mps 763 mmHg 83%
    02:00 +6°C° 0 mm 2 mps 763 mmHg 85%
    03:00 +6°C° 0 mm 2 mps 763 mmHg 86%
    04:00 +6°C° 0 mm 2 mps 763 mmHg 87%
    05:00 +6°C° 0 mm 2 mps 763 mmHg 88%
    06:00 +7°C° 0 mm 3 mps 763 mmHg 84%
    07:00 +8°C° 0 mm 3 mps 764 mmHg 80%
    08:00 +9°C° 0 mm 3 mps 764 mmHg 76%
    09:00 +10°C° 0 mm 4 mps 764 mmHg 72%
    10:00 +11°C° 0 mm 4 mps 764 mmHg 68%
    11:00 +12°C° 0 mm 5 mps 765 mmHg 64%
    12:00 +12°C° 0 mm 5 mps 764 mmHg 64%
    13:00 +12°C° 0 mm 5 mps 764 mmHg 65%
    14:00 +12°C° 0 mm 5 mps 764 mmHg 65%
    15:00 +12°C° 0 mm 5 mps 764 mmHg 66%
    16:00 +10°C° 0 mm 5 mps 764 mmHg 67%
    17:00 +10°C° 0 mm 5 mps 763 mmHg 68%
    18:00 +9°C° 0 mm 5 mps 763 mmHg 71%
    19:00 +9°C° 0 mm 5 mps 764 mmHg 73%
    20:00 +8°C° 0 mm 5 mps 764 mmHg 75%
    21:00 +8°C° 0 mm 4 mps 764 mmHg 79%
    22:00 +8°C° 0 mm 4 mps 764 mmHg 83%
    23:00 +7°C° 0 mm 4 mps 764 mmHg 86%

    24 April, Wednesday

    Time Temperature Precipitation Wind Pressure Humidity
    00:00 +7°C° 0 mm 4 mps 764 mmHg 89%
    01:00 +7°C° 0 mm 4 mps 764 mmHg 92%
    02:00 +8°C° 0 mm 3 mps 763 mmHg 95%
    03:00 +8°C° 0 mm 3 mps 763 mmHg 95%
    04:00 +8°C° 0 mm 3 mps 763 mmHg 96%
    05:00 +8°C° 0 mm 3 mps 763 mmHg 96%
    06:00 +9°C° 0 mm 3 mps 764 mmHg 91%
    07:00 +10°C° 0 mm 4 mps 764 mmHg 86%
    08:00 +11°C° 0 mm 4 mps 764 mmHg 80%
    09:00 +13°C° 0 mm 4 mps 764 mmHg 75%
    10:00 +14°C° 0 mm 4 mps 765 mmHg 70%
    11:00 +15°C° 0 mm 4 mps 765 mmHg 65%
    12:00 +15°C° 0 mm 4 mps 765 mmHg 64%
    13:00 +15°C° 0 mm 4 mps 765 mmHg 63%
    14:00 +15°C° 0 mm 4 mps 765 mmHg 62%
    15:00 +15°C° 0 mm 4 mps 764 mmHg 65%
    16:00 +14°C° 0 mm 4 mps 764 mmHg 68%
    17:00 +13°C° 0 mm 4 mps 764 mmHg 71%
    18:00 +12°C° 0 mm 4 mps 764 mmHg 78%
    19:00 +10°C° 0 mm 3 mps 764 mmHg 86%
    20:00 +9°C° 0 mm 3 mps 765 mmHg 93%
    21:00 +9°C° 0 mm 3 mps 765 mmHg 93%
    22:00 +8°C° 0 mm 3 mps 765 mmHg 93%
    23:00 +8°C° 0 mm 2 mps 765 mmHg 93%

    25 April, Thursday

    Time Temperature Precipitation Wind Pressure Humidity
    00:00 +8°C° 0 mm 2 mps 765 mmHg 93%
    01:00 +8°C° 0 mm 2 mps 765 mmHg 93%
    02:00 +8°C° 0 mm 3 mps 765 mmHg 92%
    03:00 +8°C° 0 mm 3 mps 765 mmHg 92%
    04:00 +8°C° 0 mm 3 mps 765 mmHg 93%
    05:00 +8°C° 0 mm 3 mps 765 mmHg 93%
    06:00 +9°C° 0 mm 3 mps 765 mmHg 88%
    07:00 +11°C° 0 mm 3 mps 765 mmHg 83%
    08:00 +12°C° 0 mm 3 mps 765 mmHg 78%
    09:00 +13°C° 0 mm 3 mps 765 mmHg 74%
    10:00 +14°C° 0 mm 4 mps 765 mmHg 69%
    11:00 +15°C° 0 mm 4 mps 765 mmHg 64%
    12:00 +17°C° 0 mm 4 mps 765 mmHg 64%
    13:00 +17°C° 0 mm 4 mps 765 mmHg 64%
    14:00 +17°C° 0 mm 4 mps 765 mmHg 64%
    15:00 +15°C° 0 mm 4 mps 765 mmHg 67%
    16:00 +14°C° 0 mm 4 mps 764 mmHg 70%
    17:00 +13°C° 0 mm 4 mps 764 mmHg 72%
    18:00 +12°C° 0 mm 4 mps 764 mmHg 78%
    19:00 +11°C° 0 mm 3 mps 764 mmHg 84%
    20:00 +9°C° 0 mm 2 mps 764 mmHg 89%
    21:00 +9°C° 0 mm 2 mps 764 mmHg 89%
    22:00 +9°C° 0 mm 2 mps 764 mmHg 89%
    23:00 +9°C° 0 mm 2 mps 764 mmHg 89%

    26 April, Friday

    Time Temperature Precipitation Wind Pressure Humidity
    00:00 +9°C° 0 mm 2 mps 764 mmHg 89%
    01:00 +8°C° 0 mm 2 mps 763 mmHg 89%
    02:00 +8°C° 0 mm 2 mps 763 mmHg 89%
    03:00 +8°C° 0 mm 2 mps 763 mmHg 89%
    04:00 +8°C° 0 mm 2 mps 763 mmHg 90%
    05:00 +8°C° 0 mm 2 mps 762 mmHg 90%
    06:00 +10°C° 0 mm 3 mps 763 mmHg 85%
    07:00 +11°C° 0 mm 3 mps 763 mmHg 81%
    08:00 +13°C° 0 mm 3 mps 763 mmHg 76%
    09:00 +14°C° 0 mm 4 mps 763 mmHg 72%
    10:00 +15°C° 0 mm 4 mps 762 mmHg 69%
    11:00 +17°C° 0 mm 4 mps 762 mmHg 65%
    12:00 +17°C° 0 mm 4 mps 762 mmHg 65%
    13:00 +17°C° 0 mm 4 mps 761 mmHg 64%
    14:00 +17°C° 0 mm 4 mps 761 mmHg 63%
    15:00 +15°C° 0 mm 4 mps 761 mmHg 65%
    16:00 +15°C° 0 mm 4 mps 760 mmHg 66%
    17:00 +14°C° 0 mm 3 mps 760 mmHg 68%
    18:00 +13°C° 0 mm 3 mps 760 mmHg 73%
    19:00 +12°C° 0 mm 3 mps 760 mmHg 78%
    20:00 +10°C° 0 mm 2 mps 760 mmHg 83%
    21:00 +10°C° 0 mm 2 mps 760 mmHg 83%
    22:00 +10°C° 0 mm 2 mps 760 mmHg 83%
    23:00 +10°C° 0 mm 2 mps 760 mmHg 83%
    Show more